Simultaneous Nadir Overpasses (SNOs) Predictions

Prediction of SNOs between GOES-17 and NPP Satellite Orbit:

Table of predicted SNOs for the next 14.0 days since TLE Epoch: 5/18/2024
Index Date Time (GOES-17) GOES-17 Lat,Lon NPP Lat,Lon Distance(km) Time Diff (sec)
1 05/18/2024 20:40:10 0.01,-104.70 -0.94,-108.97 486.48 80
2 05/19/2024 20:24:04 0.01,-104.70 0.10,-104.44 30.80 80
3 05/22/2024 08:27:04 -0.02,-104.71 0.06,-105.17 51.37 80
4 05/23/2024 08:05:38 -0.02,-104.71 -0.93,-100.63 465.47 80
5 05/24/2024 20:27:32 0.02,-104.70 -0.24,-105.93 139.26 80
6 05/25/2024 20:11:26 0.02,-104.70 0.76,-101.39 377.51 80
7 05/27/2024 08:30:31 -0.03,-104.70 0.43,-106.65 221.90 80
8 05/28/2024 08:14:24 -0.02,-104.70 -0.57,-102.11 294.87 80
9 05/29/2024 20:33:39 0.02,-104.69 -0.57,-107.41 309.97 80
10 05/30/2024 20:17:32 0.02,-104.68 0.44,-102.87 207.08 80
